* Astronomy

Members Login
Username 
 
Password 
    Remember Me  
Post Info TOPIC: Asteroid 2011 WM46


L

Posts: 131433
Date:
Asteroid 2011 WM46
Permalink  
 


Orbital elements:
2011 WM46                                                Earth MOID = 0.2544 AU
Epoch 2011 Aug. 27.0 TT = JDT 2455800.5                 MPC
M 353.39800              (2000.0)            P               Q
n   0.27580597     Peri.  122.92511     +0.93410928     -0.15950278
a   2.3374031      Node   248.04710     +0.07726318     +0.96375816
e   0.5169804      Incl.   20.14151     +0.34852584     +0.21384355
P   3.57           H   19.8           G   0.15           U   8

MPEC 2011 - W69



__________________
Page 1 of 1  sorted by
 
Quick Reply

Please log in to post quick replies.



Create your own FREE Forum
Report Abuse
Powered by ActiveBoard